This is the latest recevied weather packets stored in our database for station/object KU4DD. If no packets are shown the sender has not sent any weather packets the latest 10 day(s).
| Time | Temp. | Humidity | Pressure | Rain* | Wind** | Luminosity | Snow |
|---|---|---|---|---|---|---|---|
| 1777065015 | 23.33° C | 40% | 1005.4 hPa | 0 mm | - | - | - |
| 1777063116 | 23.33° C | 41% | 1005.4 hPa | 0 mm | - | - | - |
| 1777061518 | 22.78° C | 40% | 1005.8 hPa | 0 mm | - | - | - |
| 1777061194 | 22.78° C | 39% | 1005.8 hPa | 0 mm | - | - | - |
| 1777056415 | 22.22° C | 41% | 1006.8 hPa | 0 mm | - | - | - |
| 1777055457 | 22.22° C | 41% | 1007.1 hPa | 0 mm | - | - | - |
| 1777053863 | 22.22° C | 44% | 1007.5 hPa | 0 mm | - | - | - |
| 1777052899 | 22.22° C | 47% | 1007.8 hPa | 0 mm | - | - | - |
| 1777052587 | 22.22° C | 48% | 1007.8 hPa | 0 mm | - | - | - |
| 1777052263 | 22.22° C | 47% | 1007.8 hPa | 0 mm | - | - | - |
| 1777051951 | 22.22° C | 47% | 1007.8 hPa | 0 mm | - | - | - |
| 1777049713 | 22.22° C | 49% | 1008.5 hPa | 0 mm | - | - | - |
| 1777047807 | 22.22° C | 49% | 1008.8 hPa | 0 mm | - | - | - |
| 1777046239 | 22.22° C | 54% | 1009.1 hPa | 0 mm | - | - | - |
| 1777045929 | 22.22° C | 52% | 1009.1 hPa | 0 mm | - | - | - |
| 1777042224 | 21.67° C | 53% | 1009.8 hPa | 0 mm | - | - | - |
| 1777041610 | 21.67° C | 52% | 1010.2 hPa | 0 mm | - | - | - |
| 1777040998 | 21.67° C | 51% | 1010.2 hPa | 0 mm | - | - | - |
| 1777039770 | 21.11° C | 53% | 1010.2 hPa | 0 mm | - | - | - |
| 1777038526 | 21.11° C | 49% | 1010.2 hPa | 0 mm | - | - | - |
| 1777037921 | 21.67° C | 51% | 1010.2 hPa | 0 mm | - | - | - |
| 1777037286 | 21.67° C | 52% | 1010.2 hPa | 0 mm | - | - | - |
| 1777029630 | 21.11° C | 52% | 1010.5 hPa | 0 mm | - | - | - |
| 1777028667 | 21.11° C | 52% | 1010.5 hPa | 0 mm | - | - | - |
| 1777025498 | 21.11° C | 52% | 1010.2 hPa | 0 mm | - | - | - |
* Rain latest hour (hover to see other rain measurements)
** Current wind speed in m/s (hover to see current wind gust speed)